^^
Saratoga-Weather Station Historical Data
Daily Summary for April 10, 2021 Units:  Metric    English   Both
Daily Weekly Monthly Yearly Custom
  High: Low: Average:
Temperature: 13.6 °C 8.7 °C 9.9 °C
Dew Point: 8.4 °C 6.7 °C 7.8 °C
Humidity: 94% 63% 87%
Wind Speed: 17.7km/h 0km/h 2.1km/h
Wind Gust: 22.5km/h - -
Wind- - SW
Pressure: 1012.5 hPa 1010.2 hPa -
Precipitation: 3.6 mm    
Historical Graphs
 
 
Tabular Data for April 10, 2021
Time Temperature Dew Point Pressure Wind Wind Speed Wind Gust Humidity Rainfall Rate (Hourly) solar
00:03 13.6 °C 6.7 °C 1010.2 hPa NE 1.4 km/h 6.4 km/h 63% 0.0 mm 0 W/m2
00:08 13.6 °C 6.7 °C 1010.2 hPa West 9.7 km/h 17.7 km/h 63% 0.0 mm 0 W/m2
00:13 13.5 °C 6.8 °C 1010.2 hPa NNE 4.7 km/h 6.4 km/h 64% 0.0 mm 0 W/m2
00:18 13.4 °C 7 °C 1010.2 hPa WNW 9.7 km/h 22.5 km/h 65% 0.0 mm 0 W/m2
00:23 13.4 °C 7 °C 1010.2 hPa NNE 4.7 km/h 9.7 km/h 65% 0.0 mm 0 W/m2
00:28 13.3 °C 6.9 °C 1010.2 hPa North 3.2 km/h 22.5 km/h 65% 0.0 mm 0 W/m2
00:33 13.3 °C 7.1 °C 1010.2 hPa East 4.7 km/h 11.3 km/h 66% 0.0 mm 0 W/m2
00:38 13.2 °C 7 °C 1010.2 hPa NE 11.1 km/h 11.3 km/h 66% 0.0 mm 0 W/m2
00:43 13.2 °C 7 °C 1010.2 hPa ENE 1.4 km/h 6.4 km/h 66% 0.0 mm 0 W/m2
00:48 13.1 °C 6.9 °C 1010.2 hPa SW 1.4 km/h 6.4 km/h 66% 0.0 mm 0 W/m2
00:53 13.1 °C 7.1 °C 1010.2 hPa WSW 3.2 km/h 17.7 km/h 67% 0.0 mm 0 W/m2
00:58 13 °C 7 °C 1010.2 hPa WNW 3.2 km/h 11.3 km/h 67% 0.0 mm 0 W/m2
01:03 13 °C 7 °C 1010.2 hPa NNE 6.4 km/h 12.9 km/h 67% 0.0 mm 0 W/m2
01:08 13 °C 7 °C 1010.5 hPa NW 4.7 km/h 4.8 km/h 67% 0.0 mm 0 W/m2
01:13 13 °C 7 °C 1010.8 hPa WNW 7.9 km/h 16.1 km/h 67% 0.0 mm 0 W/m2
01:18 12.9 °C 7.1 °C 1010.8 hPa WSW 4.7 km/h 11.3 km/h 68% 0.0 mm 0 W/m2
01:23 12.7 °C 7.4 °C 1010.8 hPa West 3.2 km/h 17.7 km/h 70% 0.0 mm 0 W/m2
01:28 12.3 °C 7.6 °C 1010.8 hPa West 11.1 km/h 12.9 km/h 73% 0.0 mm 0 W/m2
01:33 12.1 °C 7.8 °C 1010.8 hPa West 4.7 km/h 14.5 km/h 75% 0.0 mm 0 W/m2
01:38 11.8 °C 7.7 °C 1010.8 hPa WNW 6.4 km/h 8 km/h 76% 0.0 mm 0 W/m2
01:43 11.7 °C 7.8 °C 1010.8 hPa WNW 4.7 km/h 6.4 km/h 77% 0.0 mm 0 W/m2
01:48 11.4 °C 7.9 °C 1010.8 hPa NW 1.4 km/h 8 km/h 79% 0.0 mm 0 W/m2
01:53 11.3 °C 8 °C 1010.8 hPa NW 1.4 km/h 6.4 km/h 80% 0.0 mm 0 W/m2
01:58 11.2 °C 7.9 °C 1010.8 hPa West 4.7 km/h 6.4 km/h 80% 0.0 mm 0 W/m2
02:03 11.1 °C 8 °C 1010.8 hPa West 3.2 km/h 6.4 km/h 81% 0.0 mm 0 W/m2
02:08 11.1 °C 8 °C 1010.8 hPa WNW 3.2 km/h 4.8 km/h 81% 0.0 mm 0 W/m2
02:13 11 °C 7.9 °C 1010.8 hPa Calm   3.2 km/h 81% 0.0 mm 0 W/m2
02:18 10.9 °C 7.9 °C 1010.8 hPa NW 6.4 km/h 8 km/h 82% 0.0 mm 0 W/m2
02:23 10.8 °C 8 °C 1010.8 hPa WNW 1.4 km/h 4.8 km/h 83% 0.0 mm 0 W/m2
02:28 10.7 °C 8.1 °C 1010.8 hPa Calm     84% 0.0 mm 0 W/m2
02:33 10.7 °C 8.3 °C 1010.8 hPa West 4.7 km/h 4.8 km/h 85% 0.0 mm 0 W/m2
02:38 10.5 °C 8.1 °C 1010.8 hPa WNW 1.4 km/h 3.2 km/h 85% 0.0 mm 0 W/m2
02:43 10.4 °C 8.2 °C 1010.8 hPa West 4.7 km/h 4.8 km/h 86% 0.0 mm 0 W/m2
02:48 10.3 °C 8.2 °C 1010.8 hPa West 1.4 km/h 3.2 km/h 87% 0.0 mm 0 W/m2
02:53 10.2 °C 8.1 °C 1010.8 hPa Calm   6.4 km/h 87% 0.0 mm 0 W/m2
02:58 10.2 °C 8.3 °C 1011.2 hPa Calm   4.8 km/h 88% 0.0 mm 0 W/m2
03:03 10.1 °C 8.2 °C 1011.2 hPa Calm   1.6 km/h 88% 0.0 mm 0 W/m2
03:08 10.1 °C 8.2 °C 1011.2 hPa West 3.2 km/h 3.2 km/h 88% 0.0 mm 0 W/m2
03:13 10 °C 8.3 °C 1011.2 hPa West 3.2 km/h 3.2 km/h 89% 0.2 mm 0 W/m2
03:19 9.9 °C 8.2 °C 1011.2 hPa Calm   1.6 km/h 89% 0.2 mm 0 W/m2
03:24 9.9 °C 8.2 °C 1011.2 hPa Calm   1.6 km/h 89% 0.5 mm 0 W/m2
03:29 9.8 °C 8.2 °C 1011.2 hPa Calm     90% 0.5 mm 0 W/m2
03:34 9.8 °C 8.2 °C 1011.2 hPa Calm     90% 0.5 mm 0 W/m2
03:44 9.7 °C 8.1 °C 1011.2 hPa West 3.2 km/h 6.4 km/h 90% 0.5 mm 0 W/m2
03:49 9.6 °C 8.2 °C 1011.2 hPa West 1.4 km/h 4.8 km/h 91% 0.8 mm 0 W/m2
03:54 9.6 °C 8.2 °C 1011.2 hPa Calm   6.4 km/h 91% 0.8 mm 0 W/m2
03:59 9.5 °C 8.1 °C 1011.2 hPa WSW 1.4 km/h 6.4 km/h 91% 0.8 mm 0 W/m2
04:04 9.4 °C 8 °C 1011.5 hPa WSW 1.4 km/h 4.8 km/h 91% 0.8 mm 0 W/m2
04:09 9.4 °C 8 °C 1011.5 hPa Calm   6.4 km/h 91% 0.8 mm 0 W/m2
04:14 9.3 °C 8.1 °C 1011.2 hPa Calm   1.6 km/h 92% 0.5 mm 0 W/m2
04:19 9.3 °C 8.1 °C 1011.5 hPa WSW 1.4 km/h 3.2 km/h 92% 0.5 mm 0 W/m2
04:24 9.3 °C 8.1 °C 1011.5 hPa WNW 1.4 km/h 4.8 km/h 92% 0.5 mm 0 W/m2
04:29 9.2 °C 8 °C 1011.5 hPa Calm   1.6 km/h 92% 0.5 mm 0 W/m2
04:34 9.2 °C 8 °C 1011.5 hPa Calm     92% 0.5 mm 0 W/m2
04:39 9.2 °C 8 °C 1011.5 hPa Calm   1.6 km/h 92% 0.5 mm 0 W/m2
04:44 9.1 °C 7.9 °C 1011.2 hPa Calm     92% 0.5 mm 0 W/m2
04:49 9.1 °C 7.9 °C 1011.2 hPa Calm     92% 0.2 mm 0 W/m2
04:54 9.1 °C 7.9 °C 1011.2 hPa Calm     92% 0.2 mm 0 W/m2
04:59 9.1 °C 8 °C 1011.5 hPa Calm     93% 0.2 mm 0 W/m2
05:04 9.1 °C 8 °C 1011.5 hPa Calm   1.6 km/h 93% 0.2 mm 0 W/m2
05:09 9.1 °C 8 °C 1011.5 hPa Calm   1.6 km/h 93% 0.2 mm 0 W/m2
05:14 9.1 °C 8 °C 1011.5 hPa West 1.4 km/h 1.6 km/h 93% 0.2 mm 0 W/m2
05:19 9.1 °C 8 °C 1011.5 hPa Calm   3.2 km/h 93% 0.2 mm 0 W/m2
05:24 9.1 °C 8 °C 1011.5 hPa Calm   1.6 km/h 93% 0.2 mm 0 W/m2
05:29 9.1 °C 8 °C 1011.5 hPa Calm   1.6 km/h 93% 0.2 mm 0 W/m2
05:34 9.1 °C 8 °C 1011.5 hPa Calm     93% 0.2 mm 0 W/m2
05:39 9.1 °C 8 °C 1011.5 hPa Calm     93% 0.0 mm 0 W/m2
05:44 9.1 °C 8 °C 1011.5 hPa Calm   1.6 km/h 93% 0.0 mm 0 W/m2
05:49 9.1 °C 8 °C 1011.5 hPa Calm   1.6 km/h 93% 0.0 mm 0 W/m2
05:54 9.1 °C 8 °C 1011.5 hPa Calm     93% 0.0 mm 0 W/m2
05:59 9.1 °C 8 °C 1011.5 hPa Calm   1.6 km/h 93% 0.0 mm 0 W/m2
06:04 9.1 °C 8 °C 1011.5 hPa Calm     93% 0.0 mm 0 W/m2
06:09 9.1 °C 8 °C 1011.5 hPa East 4.7 km/h 4.8 km/h 93% 0.0 mm 0 W/m2
06:14 9.1 °C 8 °C 1011.2 hPa Calm   1.6 km/h 93% 0.2 mm 0 W/m2
06:19 9.1 °C 8 °C 1011.5 hPa East 4.8 km/h 4.8 km/h 93% 0.2 mm 0 W/m2
06:24 9.1 °C 8 °C 1011.5 hPa Calm   1.6 km/h 93% 0.2 mm 0 W/m2
06:29 9.1 °C 8 °C 1011.5 hPa WNW 3.2 km/h 4.8 km/h 93% 0.2 mm 0 W/m2
06:34 9.1 °C 8.2 °C 1011.9 hPa Calm     94% 0.2 mm 0 W/m2
06:39 9.1 °C 8.2 °C 1011.9 hPa Calm   4.8 km/h 94% 0.2 mm 0 W/m2
06:44 9.1 °C 8.2 °C 1011.9 hPa Calm   1.6 km/h 94% 0.2 mm 0 W/m2
06:49 9.1 °C 8.2 °C 1011.9 hPa WNW 3.2 km/h 4.8 km/h 94% 0.2 mm 0 W/m2
06:54 9.2 °C 8.3 °C 1011.9 hPa Calm     94% 0.5 mm 0 W/m2
06:59 9.2 °C 8.3 °C 1011.9 hPa Calm   4.8 km/h 94% 0.5 mm 0 W/m2
07:04 9.2 °C 8.1 °C 1011.9 hPa Calm     93% 0.5 mm 0 W/m2
07:09 9.2 °C 8.1 °C 1011.9 hPa Calm     93% 0.5 mm 0 W/m2
07:14 9.2 °C 8.1 °C 1011.9 hPa Calm   3.2 km/h 93% 0.5 mm 0 W/m2
07:19 9.3 °C 8.2 °C 1011.9 hPa NE 1.4 km/h 3.2 km/h 93% 0.5 mm 7 W/m2
07:24 9.3 °C 8.2 °C 1011.9 hPa Calm   3.2 km/h 93% 0.5 mm 7 W/m2
07:29 9.3 °C 8.2 °C 1011.9 hPa NE 1.4 km/h 4.8 km/h 93% 0.5 mm 14 W/m2
07:34 9.3 °C 8.2 °C 1011.9 hPa Calm   4.8 km/h 93% 0.5 mm 14 W/m2
07:39 9.3 °C 8.2 °C 1011.9 hPa Calm   3.2 km/h 93% 0.5 mm 9 W/m2
07:44 9.3 °C 8.2 °C 1012.2 hPa Calm   1.6 km/h 93% 0.5 mm 7 W/m2
07:49 9.4 °C 8.3 °C 1012.2 hPa NNE 1.4 km/h 3.2 km/h 93% 0.5 mm 5 W/m2
07:54 9.4 °C 8.3 °C 1012.2 hPa NW 1.4 km/h 4.8 km/h 93% 0.5 mm 0 W/m2
07:59 9.4 °C 8.3 °C 1012.2 hPa Calm     93% 0.5 mm 9 W/m2
08:04 9.4 °C 8.3 °C 1012.2 hPa NNW 1.4 km/h 4.8 km/h 93% 0.5 mm 5 W/m2
08:09 9.4 °C 8.3 °C 1012.2 hPa Calm   1.6 km/h 93% 0.5 mm 5 W/m2
08:14 9.4 °C 8.3 °C 1012.2 hPa Calm   4.8 km/h 93% 0.5 mm 5 W/m2
08:19 9.4 °C 8.3 °C 1012.2 hPa Calm   1.6 km/h 93% 0.5 mm 5 W/m2
08:24 9.3 °C 8.2 °C 1012.2 hPa Calm   3.2 km/h 93% 0.8 mm 5 W/m2
08:29 9.3 °C 8.2 °C 1012.2 hPa West 3.2 km/h 3.2 km/h 93% 0.8 mm 5 W/m2
08:34 9.3 °C 8.2 °C 1012.2 hPa Calm     93% 1.0 mm 0 W/m2
08:39 9.3 °C 8.2 °C 1012.2 hPa NW 3.2 km/h 3.2 km/h 93% 1.3 mm 0 W/m2
08:44 9.2 °C 8.1 °C 1012.2 hPa Calm     93% 1.3 mm 0 W/m2
08:49 9.2 °C 8.1 °C 1012.2 hPa NNE 1.4 km/h 3.2 km/h 93% 1.5 mm 5 W/m2
08:54 9.2 °C 8.1 °C 1012.2 hPa North 1.4 km/h 3.2 km/h 93% 1.5 mm 5 W/m2
08:59 9.2 °C 8.1 °C 1012.2 hPa Calm   9.7 km/h 93% 1.5 mm 9 W/m2
09:04 9.2 °C 8.1 °C 1012.2 hPa NW 17.7 km/h 17.7 km/h 93% 1.5 mm 19 W/m2
09:09 9.2 °C 8.1 °C 1012.2 hPa NW 6.4 km/h 12.9 km/h 93% 1.5 mm 28 W/m2
09:14 9.2 °C 8.1 °C 1012.2 hPa NW 4.7 km/h 4.8 km/h 93% 1.5 mm 40 W/m2
09:19 9.1 °C 7.9 °C 1012.2 hPa North 3.2 km/h 8 km/h 92% 1.3 mm 54 W/m2
09:24 8.9 °C 7.7 °C 1012.2 hPa SW 3.2 km/h 4.8 km/h 92% 1.0 mm 62 W/m2
09:29 8.8 °C 7.4 °C 1012.2 hPa Calm   3.2 km/h 91% 1.3 mm 51 W/m2
09:34 8.8 °C 7.6 °C 1012.2 hPa NNE 1.4 km/h 6.4 km/h 92% 0.8 mm 56 W/m2
09:39 8.8 °C 7.6 °C 1012.2 hPa NE 1.4 km/h 4.8 km/h 92% 0.5 mm 62 W/m2
09:45 8.7 °C 7.3 °C 1012.2 hPa NW 3.2 km/h 4.8 km/h 91% 0.5 mm 69 W/m2
09:50 8.7 °C 7.3 °C 1012.2 hPa WNW 1.4 km/h 4.8 km/h 91% 0.5 mm 53 W/m2
09:55 8.7 °C 7.3 °C 1012.2 hPa NNW 3.2 km/h 4.8 km/h 91% 0.5 mm 46 W/m2
10:00 8.7 °C 7.3 °C 1012.2 hPa NW 1.4 km/h 6.4 km/h 91% 0.2 mm 40 W/m2
10:05 8.7 °C 7.2 °C 1012.2 hPa NNW 3.2 km/h 3.2 km/h 90% 0.2 mm 46 W/m2
10:10 8.7 °C 7.2 °C 1012.2 hPa North 4.7 km/h 4.8 km/h 90% 0.2 mm 46 W/m2
10:15 8.7 °C 7.3 °C 1012.2 hPa NE 6.4 km/h 6.4 km/h 91% 0.2 mm 49 W/m2
10:20 8.7 °C 7.2 °C 1012.2 hPa NE 3.2 km/h 8 km/h 90% 0.2 mm 46 W/m2
10:25 8.7 °C 7.2 °C 1012.2 hPa Calm   3.2 km/h 90% 0.2 mm 49 W/m2
10:30 8.7 °C 7.2 °C 1012.2 hPa North 1.4 km/h 8 km/h 90% 0.0 mm 49 W/m2
10:35 8.8 °C 7.2 °C 1012.5 hPa NNE 1.4 km/h 6.4 km/h 90% 0.0 mm 54 W/m2
10:40 8.8 °C 7.2 °C 1012.5 hPa NE 3.2 km/h 6.4 km/h 90% 0.0 mm 54 W/m2
10:45 8.8 °C 7.2 °C 1012.5 hPa NE 1.4 km/h 3.2 km/h 90% 0.0 mm 62 W/m2
10:50 8.8 °C 7.2 °C 1012.5 hPa ENE 3.2 km/h 4.8 km/h 90% 0.0 mm 74 W/m2
10:55 8.8 °C 7.2 °C 1012.5 hPa NE 3.2 km/h 4.8 km/h 90% 0.0 mm 79 W/m2
11:00 8.9 °C 7.3 °C 1012.5 hPa NE 3.2 km/h 4.8 km/h 90% 0.0 mm 88 W/m2
11:05 8.9 °C 7.3 °C 1012.5 hPa East 3.2 km/h 4.8 km/h 90% 0.0 mm 105 W/m2
11:10 8.9 °C 7.3 °C 1012.5 hPa North 3.2 km/h 4.8 km/h 90% 0.0 mm 116 W/m2
11:15 9.1 °C 7.5 °C 1012.5 hPa East 3.2 km/h 6.4 km/h 90% 0.0 mm 153 W/m2
11:20 9.2 °C 7.6 °C 1012.5 hPa Calm   3.2 km/h 90% 0.0 mm 183 W/m2
11:25 9.3 °C 7.7 °C 1012.2 hPa NW 1.4 km/h 6.4 km/h 90% 0.0 mm 135 W/m2
11:30 9.4 °C 7.8 °C 1012.5 hPa NW 1.4 km/h 3.2 km/h 90% 0.0 mm 86 W/m2
11:35 9.4 °C 7.8 °C 1012.2 hPa North 3.2 km/h 4.8 km/h 90% 0.0 mm 102 W/m2
11:40 9.4 °C 7.7 °C 1012.2 hPa Calm   4.8 km/h 89% 0.0 mm 100 W/m2
11:45 9.5 °C 7.9 °C 1012.2 hPa NNW 1.4 km/h 3.2 km/h 90% 0.0 mm 91 W/m2
11:50 9.6 °C 8 °C 1012.2 hPa Calm   4.8 km/h 90% 0.0 mm 146 W/m2
11:55 9.7 °C 8.1 °C 1012.2 hPa Calm   4.8 km/h 90% 0.0 mm 141 W/m2
12:00 9.8 °C 8.2 °C 1012.2 hPa North 1.4 km/h 3.2 km/h 90% 0.0 mm 137 W/m2
12:05 9.8 °C 8.1 °C 1012.2 hPa Calm   1.6 km/h 89% 0.0 mm 139 W/m2
12:10 9.9 °C 8.2 °C 1012.2 hPa NE 3.2 km/h 4.8 km/h 89% 0.0 mm 165 W/m2
12:15 9.9 °C 8.2 °C 1012.2 hPa Calm   4.8 km/h 89% 0.0 mm 156 W/m2
12:20 10 °C 8.3 °C 1012.2 hPa Calm   4.8 km/h 89% 0.0 mm 163 W/m2
12:25 10.1 °C 8.4 °C 1011.9 hPa NNW 4.7 km/h 4.8 km/h 89% 0.0 mm 121 W/m2
12:30 10.1 °C 8.4 °C 1012.2 hPa Calm   4.8 km/h 89% 0.0 mm 111 W/m2
12:35 10.1 °C 8.4 °C 1011.9 hPa Calm   4.8 km/h 89% 0.0 mm 134 W/m2
12:40 10.1 °C 8.2 °C 1011.9 hPa WSW 7.9 km/h 17.7 km/h 88% 0.0 mm 139 W/m2
12:45 10.1 °C 8.2 °C 1011.9 hPa NW 3.2 km/h 4.8 km/h 88% 0.0 mm 139 W/m2
Juneau County Weather
Compliments of Weather Underground - 4 mb